USA 253

Last updated on Nov. 11, 2019, 4:17 a.m. UTC

1 40099U 14043A   19314.57330900 -.00000237  00000-0  00000+0 0  9991
2 40099   0.0425 289.9668 0019738 313.4737  97.7561  1.00572765  3886
UTC
Height (km)
Latitude
Longitude
Inclination
Orbital Period
UTC large
Height (km)
Speed (km/s)
/
Latitude / Longitude
Inclination (degrees)
Orbital Period (minutes)
Azimuth
Elevation
Range (km)
Doppler Factor
iOS Compass Heading
iOS Angle

Next 30 passes for location: Hong Kong

Rise time Rise Azimuth (degrees) Set time Set Azimuth (degrees) Duration Max altitude (degrees)

No matching passes for this satellites